STARLINK-32316, 61860

Orbit data source: Space-Track

STARLINK-32316, 61860 is a payload satellite owned by SpaceX/Seattle (US) in LEO that was launched on Thu, 07 Nov 2024 UTC via an FALCON 9 launch vehicle from the Air Force Eastern Test Range (AFETR). Payload-class satellites include a variety of spacecraft equipped with specific instruments for various scientific and technological missions. These include communications satellites like Starlink; space stations such as the ISS; scientific satellites like the Hubble; Earth observation satellites from companies like Planet Labs, Umbra, and HawkEye 360; GPS; miniature CubeSats for education and research; and military/defense satellites.

Loading next visibility...
Identifier
61860, 2024-202R
Orbit
LEO
Country
Flag of USUS
Related business
Manufacturer
SpaceX/Seattle
Mission
Operational Commercial Communications
Bus & Motor
STARLINK V2M, Unknown motor
Mass
730 kg wet, ~700 kg dry
Launch date (UTC)
2024-11-07 (1 year ago)
Launch vehicle
FALCON 9
Launch site
Air Force Eastern Test Range (AFETR)
Object type
Payload
Rocket body
Debris
Shape & HBR
Box + 2 Pan, 17.7 m
Radar Cross Section
33.884 m², Large (>1 m²)

Expand to show TLE details & history
Last TLE update: 13 hours ago

TLE from 13 hours ago
0 STARLINK-32316
1 61860U 24202R   26035.10508218  .00000024  00000-0  10385-4 0  9999
2 61860  43.0024  63.9953 0000864 249.4551 110.6208 15.27580309 70239
Epoch: 2026-02-04T02:31Z
TLE epoch observation values (Epoch: 2026-02-04T02:31:19.100Z)
Latitude
-0.00001°
Longitude
-108.11074°
Altitude
483.033 km
Speed
7.626 km/s
True Right ascension
04h 15m 58s
True Declination
0° 00' 00"
Sunlit
Object was in daylight at epoch
Visualization orbit readout
Latitude
Unknown
Longitude
Unknown
Altitude
Unknown
Speed
Unknown
Apparent Right ascension
Unknown
Apparent Declination
Unknown
Sunlit
N/A
Visualization observer readout
Local Sidereal Time
17:20:13
Azimuth
Unknown
Elevation
Unknown
Doppler factor
Unknown
Orbital elements
Apogee altitude
485.586 km
Perigee altitude
484.4 km
Semi-major axis
6,863.13 km
Eccentricity
0.00009
Inclination
43.0024°
RAAN
63.9953°
Arg. of periapsis
249.4551°
True anomaly
110.63007°
Mean anomaly
110.6208°
Eccentric anomaly
110.62543°
Mean motion
3.81733 °/min
Orbital period
94.31 mins
BSTAR
0.000010385
Loading maneuver chart data...
Computing Atmospheric mass density...
Loading historical data...
Loading historical data...
Loading historical data...
Loading historical data...
Loading historical data...
Loading historical data...
Loading historical data...

Documentation

Showing up to 5 results
|